Regional Weather Roundup
Issued by NWS Sioux Falls, SD

Home | Current Version | Previous Version | Graphics & Text | Print | Product List | Glossary On
Versions: 1 2 3 4 5 6 7 8 9 10 11 12 13 14 15 16 17 18 19 20 21 22 23 24 25 26 27 28 29 30 31 32 33 34 35 36 37 38 39 40 41 42 43 44 45 46 47 48 49 50
000
ASUS43 KFSD 051010
RWRFSD

WEATHER ROUNDUP FOR SE SOUTH DAKOTA/SW MINNESOTA/NW IOWA
NATIONAL WEATHER SERVICE SIOUX FALLS SD
500 AM CDT SAT SEP 05 2015

NOTE: "FAIR" INDICATES FEW OR NO CLOUDS BELOW 12,000 FEET WITH NO
SIGNIFICANT WEATHER AND OR OBSTRUCTIONS TO VISIBILITY.


SDZ038>040-050-052>070-051100-
SOUTHEAST SOUTH DAKOTA

CITY           SKY/WX    TMP DP  RH WIND       PRES   REMARKS
BROOKINGS      PTCLDY    70  66  88 SE9       29.87S
CHAMBERLAIN    PTCLDY    67  67  98 E6        29.78S
HURON          CLEAR     71  68  90 SE8       29.79R
MADISON        FAIR      68  68 100 SE8       29.86R
MITCHELL       CLEAR     71  68  90 SE8       29.80R
SIOUX FALLS    PTCLDY    73  67  81 S10       29.85S
WINNER         FAIR      75  62  64 S10       29.78S
YANKTON        CLEAR     73  66  78 S8        29.81R
$$

MNZ071-072-080-081-089-090-097-098-051100-
SOUTHWEST MINNESOTA

CITY           SKY/WX    TMP DP  RH WIND       PRES   REMARKS
FAIRMONT       PTCLDY    73  66  78 S13       29.93S
JACKSON        DRIZZLE   73  70  88 S12       29.94R
LUVERNE        PTCLDY    72  68  88 S6        29.88R
MARSHALL       PTCLDY    73  64  73 S14       29.86S
MONTEVIDEO     CLEAR     73  70  88 S7        29.86S
PIPESTONE      PTCLDY    73  66  78 S10       29.88S
REDWOOD FALLS  PTCLDY    74  70  87 SE12      29.87S
TRACY          PTCLDY    74  69  86 S13G18    29.87S
WINDOM         PTCLDY    75  68  78 SE10      29.91S
WORTHINGTON    PTCLDY    72  64  78 S13       29.91R
$$

IAZ001>003-012>014-020>022-031-032-NEZ013-014-SDZ071-051100-
NORTHWEST IOWA

CITY           SKY/WX    TMP DP  RH WIND       PRES   REMARKS
CHEROKEE       MOCLDY    75  70  86 S10G16    29.92S
DENISON        MOCLDY    73  70  88 S8        29.95R
ESTHERVILLE    TSTM      71  70  96 S9        29.94S
LE MARS        CLEAR     75  70  83 S13G20    29.89R
ORANGE CITY    CLEAR     72  68  88 SE8       29.90R
SHELDON        PTCLDY    73  70  88 S13       29.89R
SIOUX CITY     PTCLDY    73  68  84 SE8       29.88R
SPENCER        CLOUDY    76  68  76 S10       29.93S HAZE
STORM LAKE     MOCLDY    72  70  94 SE9       29.96R
$$

ABBREVIATIONS USED IN REMARKS
   TC - TEMPERATURE IN CELSIUS
  WCI - WIND CHILL INDEX
   HX - HEAT INDEX
  VSB - VISIBILITY




USA.gov is the U.S. government's official web portal to all federal, state and local government web resources and services.